Location: A�t Bou Chrif
(32.7193°N, 5.2385°W)
Time: 23:38:57
(UTC+00:00)

Cosmos 2369 - Pass Details

Date: 08 August 2020
Orbit: 838 x 857 km, 71.0° (Epoch: 18 September)

Event Time Altitude Azimuth Distance (km) Brightness Sun altitude
Rises 21:42:25 0° 339° (NNW) 3,433 7.9 -27.6°
Reaches altitude 10° 21:44:53 10° 339° (NNW) 2,493 6.9 -28.0°
Enters shadow 21:50:25 83° 314° (NW) 865 3.6 -28.8°
